CAPE
0 0 0 0 0 0 0 0 0 0 0 0 0 0 0 0 0 0 0 0 0 0 0 0 0 0 0 0 0 0 0 0 0 0 0 0 0 11 23 104 60 78 18
0 0 0 0 0 0 0 0 0 0 0 0 0 0 0 0 0 0 0 0 0 0 0 0 0 0 0 0 0 0 0 0 0 0 0 0 0 2 3 33 95 63 50
0 0 0 0 0 0 0 0 0 0 0 0 0 0 0 0 0 0 0 0 0 0 0 0 0 0 0 0 0 0 0 0 0 0 0 0 0 0 2 15 80 40 47
0 0 0 0 0 0 0 0 0 0 0 0 0 0 0 0 0 0 0 0 0 0 0 0 0 0 0 0 0 0 0 0 0 0 0 0 0 0 0 0 31 24 78
0 0 0 0 0 0 0 2 9 1 8 5 1 0 0 0 2 0 0 0 0 0 0 0 0 0 0 0 0 0 0 0 0 0 0 0 0 0 0 0 0 32 106
0 0 0 0 0 0 0 0 0 1 0 0 4 10 5 0 0 1 0 0 0 0 0 0 0 0 0 0 0 0 0 0 0 0 0 0 0 0 0 0 0 0 28
0 0 0 0 0 0 0 0 0 0 0 0 7 0 0 0 0 1 0 0 0 0 0 0 0 0 0 0 0 0 0 0 0 0 0 0 0 0 0 0 0 0 2
0 0 0 0 0 0 0 0 0 0 0 0 19 23 32 4 0 0 0 0 0 0 0 0 0 0 0 0 0 0 0 0 0 0 0 0 0 0 0 0 0 0 1
0 0 0 0 0 0 0 0 0 0 0 0 0 4 26 14 5 0 0 0 0 0 0 0 0 0 0 0 0 0 0 0 0 0 0 0 0 0 0 0 1 0 2
0 0 0 0 0 0 0 0 0 0 0 0 0 0 0 1 20 11 0 0 0 0 0 0 0 0 0 0 0 0 0 0 0 0 0 0 0 0 0 0 0 0 0
0 0 0 0 0 0 0 0 0 0 0 0 0 0 0 0 0 2 20 20 1 0 3 0 0 0 0 0 0 0 0 0 0 0 0 0 0 0 0 0 0 2 0
0 0 0 0 0 0 0 0 0 0 0 0 0 0 0 3 3 1 2 16 19 5 0 0 0 0 0 0 0 0 0 0 0 0 0 0 0 0 0 0 0 0 0
0 0 0 0 0 0 0 0 0 0 0 0 0 0 0 0 0 2 1 1 5 2 1 0 0 0 0 0 0 0 0 0 0 0 0 0 0 0 0 0 0 0 0
0 0 0 0 0 0 0 0 0 0 0 0 0 1 0 1 1 0 5 2 0 4 2 0 0 0 0 0 0 0 0 0 0 0 0 0 0 0 0 0 0 0 0
0 0 0 0 0 0 0 0 0 0 0 0 0 0 0 0 0 0 1 7 6 1 1 3 4 0 0 0 0 0 0 0 0 0 0 0 0 0 0 0 0 0 0
0 0 0 0 0 0 0 0 0 0 0 0 0 0 0 0 0 1 2 2 1 1 1 2 0 2 0 4 0 0 0 0 0 0 0 0 0 0 0 0 0 0 0
0 0 0 0 0 0 0 0 0 0 0 0 0 0 0 0 2 3 3 1 1 1 1 7 3 0 0 0 0 0 0 0 0 0 0 0 0 0 0 0 0 0 0
0 0 0 1 0 0 0 0 0 0 0 0 0 0 0 1 0 0 0 1 1 0 1 8 6 0 0 0 0 0 0 0 0 0 0 0 0 0 0 0 0 0 0
0 0 2 0 0 0 0 0 0 0 1 1 0 0 0 1 0 4 1 0 1 0 4 3 1 5 0 0 0 0 0 0 0 0 0 0 0 0 0 0 0 0 0
0 0 0 1 0 1 0 0 0 0 0 0 0 0 0 2 2 0 6 0 0 2 0 4 13 7 2 1 0 0 0 0 0 0 0 0 0 0 0 0 0 0 0
0 0 0 0 1 0 0 1 2 1 1 2 1 0 0 0 4 5 2 4 0 1 2 4 0 10 4 1 2 0 1 4 0 0 0 0 0 0 0 0 0 0 0
0 0 0 0 0 1 1 1 1 0 0 0 0 0 1 2 2 3 14 15 2 0 2 6 1 1 0 1 1 0 1 4 1 0 0 0 0 0 0 0 0 0 0
0 0 0 0 1 0 0 4 1 3 1 0 1 0 1 2 2 4 2 1 2 14 3 2 2 1 5 0 2 0 12 2 1 0 0 0 0 0 0 0 0 0 0
0 0 0 0 0 0 0 0 0 1 0 0 1 0 0 0 0 0 0 0 0 1 1 1 1 2 0 1 0 1 13 2 1 0 0 0 0 0 0 0 0 0 0
0 0 0 0 0 0 0 1 0 0 1 1 0 1 0 0 1 1 0 1 0 0 1 2 2 0 1 1 1 3 14 24 7 0 0 0 0 0 0 0 0 0 0
0 0 0 0 0 0 0 1 1 1 1 0 1 1 1 1 0 1 0 0 0 0 0 0 1 1 3 1 0 2 0 11 4 2 0 0 0 0 5 0 0 0 0
CIN
-21 0 0 0 0 0 0 0 0 0 0 0 0 0 0 0 0 0 0 0 0 0 0 0 0 0 0 0 0 0 0 0 0 0 0 0 0 -51 -37 -9 -28 -20 -48
0 0 0 0 0 0 0 0 0 0 0 0 0 0 0 0 0 0 0 0 0 0 0 0 0 0 0 0 0 0 0 0 0 0 0 0 0 -41 -57 -38 -7 -29 -33
0 0 0 0 0 0 0 0 0 0 0 0 0 0 0 0 0 0 0 0 0 0 0 0 0 0 0 0 0 0 0 0 0 0 0 0 0 0 -105 -42 -9 -4 -14
0 0 0 0 0 0 0 0 0 0 0 0 0 0 0 0 0 0 0 0 0 0 0 0 0 0 0 0 0 0 0 0 0 0 0 0 0 0 0 0 -11 -4 0
0 0 0 0 0 0 0 -35 -100 -79 -81 -82 -33 0 0 0 -38 0 0 0 0 0 0 0 0 0 0 0 0 0 0 0 0 0 0 0 0 0 0 0 0 -22 -1
0 0 0 0 0 0 0 0 0 -24 0 0 -58 -49 -46 -13 0 -68 0 0 0 0 0 0 0 0 0 0 0 0 0 0 0 0 0 0 0 0 0 0 0 0 -25
0 0 0 0 0 0 0 0 0 0 0 0 -26 0 0 0 0 -57 0 0 0 0 0 0 0 0 0 0 0 0 0 0 0 0 0 0 0 0 0 0 0 0 -44
0 0 0 0 0 0 0 0 0 0 0 0 -1 -8 -3 -23 0 0 0 0 -15 0 0 0 0 0 0 0 0 0 0 0 0 0 0 0 0 0 0 0 0 0 -46
0 0 0 0 0 0 0 0 0 0 0 0 0 -3 -1 -3 -7 0 0 0 0 0 0 0 0 0 0 0 0 0 0 0 0 0 0 0 0 0 0 0 0 0 0
0 0 0 0 0 0 0 0 0 0 0 0 0 0 0 -1 -1 -3 0 0 0 0 0 0 0 0 0 0 0 0 0 0 0 0 0 0 0 0 0 0 0 0 0
0 0 0 0 0 0 0 0 0 0 0 0 0 0 0 0 0 0 0 -4 -39 0 -84 0 0 0 0 0 0 0 0 0 0 0 0 0 0 0 0 0 0 0 0
0 0 0 0 0 0 0 0 0 0 0 0 0 0 0 0 0 0 -3 -1 0 -6 -11 0 0 0 0 0 0 0 0 0 0 0 0 0 0 0 0 0 0 0 0
0 0 0 0 0 0 0 0 0 0 0 0 0 0 0 0 0 0 0 0 0 -1 -1 0 0 0 0 0 0 0 0 0 0 0 0 0 0 0 0 0 0 0 0
0 0 0 0 0 0 0 0 0 0 0 0 0 -5 -1 0 0 -1 -1 0 0 0 0 0 0 0 0 0 0 0 0 0 0 0 0 0 0 0 0 0 0 0 0
0 0 0 0 0 0 0 0 0 0 0 0 0 0 0 0 0 0 0 0 0 0 0 0 0 0 0 0 0 0 0 0 0 0 0 0 0 0 0 0 0 0 0
0 0 0 0 0 0 0 0 0 0 0 0 0 0 0 0 0 -2 -3 -1 0 -4 0 0 0 -1 -3 -20 0 0 0 0 0 0 0 0 0 0 0 0 0 0 0
0 0 0 0 -2 0 0 0 0 0 0 0 0 0 0 -2 -4 -1 -1 -1 0 0 0 -1 -4 0 0 0 0 0 0 0 0 0 0 0 0 0 0 0 0 0 0
0 0 -2 -6 -3 0 0 0 0 0 0 0 0 0 0 -8 -2 0 0 0 0 0 0 0 -1 0 0 0 0 0 0 0 0 0 0 0 0 0 0 0 0 0 0
0 0 -5 -6 -3 -1 0 0 0 0 0 0 0 0 -1 0 0 -1 -4 0 0 0 -1 0 -1 -1 -1 0 -1 0 0 0 0 0 0 0 0 0 0 0 0 0 0
0 0 0 -1 -1 -1 -1 -4 -4 0 0 0 -3 -1 -1 -3 -3 -2 -1 -1 0 0 0 0 0 -1 -4 0 0 -1 -2 0 0 0 0 0 0 0 0 0 0 0 0
0 0 0 0 -1 -1 0 -3 -1 -1 -2 -1 -6 -5 -2 -7 -3 -1 0 -1 -1 0 0 0 -3 -1 -1 0 0 0 -8 0 0 0 0 0 0 0 0 0 0 0 0
0 0 0 -1 0 -4 -1 -1 0 -1 0 -3 0 0 0 0 0 0 0 0 -1 -1 0 0 0 0 0 0 0 0 0 -7 0 0 0 0 0 0 0 0 0 0 0
0 -1 0 0 -2 0 -3 -2 -4 0 0 -2 0 0 0 0 0 -1 -4 -3 -1 0 -1 0 0 0 -1 0 0 0 0 0 0 0 0 0 0 0 0 0 0 0 0
0 0 0 0 -2 0 0 0 0 0 0 -1 0 0 0 0 0 0 -4 -2 -1 0 0 0 0 -2 0 0 0 0 0 -2 -3 0 0 0 0 0 0 0 0 0 0
0 0 0 0 0 0 0 0 0 0 0 0 0 0 0 0 0 0 0 0 0 0 0 0 0 0 0 0 0 0 0 0 0 -2 0 0 0 0 0 0 0 0 0
0 0 0 0 0 0 0 0 0 0 0 0 0 0 0 0 0 0 0 0 0 0 0 0 0 0 0 0 0 0 0 0 -1 -4 0 0 0 0 -15 0 0 0 0
Wind_Speed
16 20 23 24 23 24 24 22 19 22 24 24 19 19 22 22 21 21 20 21 20 20 21 20 19 20 19 19 19 20 20 20 20 21 21 21 22 22 23 23 10 8 9
17 17 19 22 25 24 25 25 25 26 27 26 27 23 24 24 24 22 22 22 21 21 22 22 22 21 21 21 21 21 21 22 22 22 23 23 23 22 23 24 14 10 10
16 16 17 21 23 25 25 23 24 24 27 29 30 28 28 27 26 26 26 25 24 23 23 24 23 23 23 23 23 23 23 23 23 23 24 24 24 23 23 23 24 16 11
23 20 22 24 27 27 28 27 25 25 23 28 31 32 30 28 29 29 27 28 28 28 26 25 25 24 24 24 24 24 24 25 24 24 25 25 25 24 24 23 24 27 9
27 24 24 27 29 28 27 28 27 26 28 26 28 33 34 32 31 32 32 31 29 29 30 29 29 27 26 25 25 26 26 26 26 26 26 26 25 25 24 24 24 23 14
27 27 27 28 29 28 28 30 29 27 28 30 30 31 29 31 32 33 34 34 34 32 30 31 30 31 32 30 30 28 28 28 27 27 27 27 26 26 26 25 25 25 27
29 30 30 30 30 30 30 30 30 30 30 28 31 32 34 33 30 31 31 34 35 35 33 32 32 32 32 32 31 31 30 29 29 29 28 28 28 27 27 27 26 26 27
30 31 31 31 30 30 31 30 30 30 28 27 29 30 36 36 35 33 33 32 34 33 32 31 32 33 34 33 32 32 32 31 30 29 29 29 29 28 28 28 27 26 25
30 31 31 31 31 30 31 31 31 31 31 30 29 30 34 38 35 32 33 35 35 37 38 36 36 35 35 35 34 34 35 34 32 31 30 30 29 28 28 29 28 28 27
28 29 29 30 30 30 31 30 30 31 31 35 35 29 33 34 38 41 35 34 34 36 37 38 38 37 36 36 36 35 36 36 35 34 32 31 30 30 29 29 30 30 30
30 31 31 30 30 30 29 30 31 31 31 33 34 36 37 37 36 40 45 40 35 35 33 33 35 36 36 34 34 36 37 37 37 36 34 32 32 32 30 29 30 30 31
30 32 32 32 31 32 32 32 31 30 30 32 33 34 36 38 39 39 40 42 47 42 39 39 38 37 35 35 35 35 35 39 40 38 35 31 31 32 31 29 29 31 32
32 33 33 33 33 33 33 33 32 31 31 32 33 34 34 36 36 39 42 44 42 39 41 43 43 40 40 37 35 35 35 36 37 37 35 32 32 32 32 31 30 31 32
33 32 33 34 33 33 33 32 31 31 31 32 33 32 34 35 35 37 39 40 42 42 43 45 37 41 41 40 40 40 39 38 38 36 36 34 33 34 33 34 32 31 32
33 32 35 36 33 33 31 31 32 32 31 32 32 32 33 33 34 36 38 38 43 46 45 41 40 37 35 37 40 40 41 40 39 39 37 35 34 35 35 36 35 33 32
33 35 36 35 33 32 31 31 31 31 31 31 31 33 34 34 35 34 36 38 39 45 49 41 42 37 35 37 38 40 40 40 40 39 39 37 35 34 35 37 36 35 33
35 36 37 35 31 31 29 30 29 30 31 31 30 31 32 32 34 34 35 36 39 39 42 42 42 44 41 39 39 38 39 40 40 40 39 35 34 33 34 36 35 35 34
36 38 35 32 29 29 29 29 30 29 30 30 30 30 31 31 31 31 33 35 36 37 41 44 39 40 44 42 42 42 41 40 39 38 36 31 32 32 31 34 35 35 35
37 37 34 32 30 28 28 27 28 28 29 30 29 30 30 30 32 30 30 32 34 36 37 41 42 38 40 40 38 38 39 39 37 36 34 31 29 31 31 31 33 36 36
36 37 35 32 29 28 26 26 27 28 28 26 25 25 26 26 28 31 30 29 31 34 36 39 39 38 38 39 39 39 38 36 38 36 35 32 29 30 30 31 33 36 36
36 36 35 31 28 26 25 25 28 27 29 27 24 23 21 22 21 24 28 27 27 31 35 37 41 39 38 39 39 38 38 36 37 35 36 33 29 29 30 32 33 35 36
38 35 35 31 30 27 24 26 26 25 26 23 22 21 19 19 22 28 26 24 23 27 34 37 37 40 38 39 39 40 39 34 36 37 36 32 29 30 31 31 31 32 33
34 34 31 29 28 24 26 26 26 23 22 19 16 14 15 17 18 22 23 23 30 26 38 38 41 38 40 38 38 40 39 39 39 34 32 32 29 31 30 30 29 30 32
31 31 29 27 25 24 24 24 24 22 18 14 10 6 5 6 13 24 15 21 32 34 38 40 43 43 42 42 41 41 39 36 33 30 28 31 28 30 28 27 26 28 32
25 29 27 26 25 21 22 24 24 22 20 15 10 4 4 5 9 17 18 19 22 25 31 36 40 43 44 45 44 40 38 34 33 27 29 26 27 27 27 27 26 26 28
22 24 24 23 21 21 21 23 23 22 20 17 14 10 9 12 13 12 15 14 15 17 21 28 33 38 42 42 44 45 39 38 30 25 26 25 25 26 29 26 26 27 28
Wind_Direction
344 339 328 325 324 320 316 318 321 307 302 299 305 302 292 290 289 286 286 286 290 294 295 298 301 301 302 303 303 301 299 299 297 292 291 290 288 285 281 273 287 291 291
349 344 335 325 320 318 314 314 313 305 297 297 294 297 293 290 287 286 284 284 286 289 290 292 293 295 296 298 298 300 299 297 295 293 289 287 288 286 283 276 279 284 281
349 344 338 327 321 317 313 314 312 310 299 295 292 291 290 288 286 284 283 283 284 283 285 286 288 290 291 292 294 295 296 297 295 292 290 287 284 285 285 282 274 285 275
344 342 333 326 319 315 310 308 306 305 306 296 292 290 289 287 285 283 282 281 281 282 283 282 283 284 286 288 291 292 292 292 293 292 290 287 285 283 283 283 281 269 262
347 346 340 332 324 318 313 310 302 300 300 300 295 289 287 286 284 283 280 278 281 280 279 279 279 279 281 283 287 288 289 290 289 288 288 287 285 282 282 282 281 283 275
344 342 339 335 330 326 320 313 307 302 300 298 297 288 290 288 285 282 279 277 277 278 277 276 276 276 275 277 279 282 285 286 287 287 286 285 284 283 280 281 277 275 266
339 336 334 330 328 325 322 318 313 308 304 301 297 290 287 287 282 282 282 280 277 276 275 272 273 274 274 275 276 277 280 282 283 284 284 283 282 282 280 278 277 275 274
339 337 334 331 329 326 321 318 316 312 309 307 301 297 290 287 284 280 279 276 277 277 276 274 272 271 272 272 274 274 275 278 280 282 281 282 282 281 280 276 275 275 276
344 340 338 335 332 329 323 320 316 311 306 304 303 297 294 289 290 288 279 277 275 275 274 273 270 270 271 271 271 271 270 271 275 276 279 279 280 281 280 277 274 273 273
348 346 342 340 336 333 328 324 320 315 309 302 300 299 294 294 289 285 285 282 277 275 275 273 270 269 269 269 268 268 268 269 269 271 274 277 278 278 279 278 275 272 270
346 344 343 341 338 335 331 326 321 316 312 306 302 298 294 292 290 286 282 281 280 276 274 272 272 269 266 266 267 268 267 266 267 269 270 273 274 275 278 278 276 273 270
344 344 343 340 338 334 330 325 321 317 314 310 305 300 295 291 289 287 286 283 276 276 275 273 269 268 267 265 265 267 267 267 267 266 266 269 271 272 274 276 276 273 270
341 340 341 339 336 333 330 326 321 317 313 310 307 302 299 294 292 287 284 282 281 281 275 272 269 268 266 264 263 264 267 268 268 263 262 266 268 269 270 271 272 272 271
341 342 340 338 335 332 331 328 324 319 315 311 308 305 301 298 294 288 284 284 282 278 275 270 274 268 263 263 263 262 265 267 266 263 261 262 265 266 267 266 268 270 270
344 343 340 337 335 333 331 329 324 320 316 313 309 306 301 299 296 292 286 283 277 277 272 272 269 271 267 264 262 262 262 264 264 261 261 260 262 263 264 261 263 265 268
347 343 341 340 337 334 333 331 329 326 321 317 313 308 303 300 296 293 288 283 280 274 273 271 268 269 271 268 266 263 262 262 260 260 259 256 260 263 262 258 259 262 266
350 347 344 341 341 339 337 336 333 328 324 320 316 312 308 303 298 293 289 285 280 276 274 272 269 266 268 268 266 265 263 261 259 257 256 256 257 261 260 256 257 261 263
352 350 350 348 346 344 342 339 336 332 328 323 319 314 309 306 300 295 290 285 282 278 273 272 271 268 264 265 264 264 261 260 259 255 252 250 255 256 259 258 257 260 261
356 356 355 353 351 348 345 343 341 337 333 327 322 318 313 308 301 296 290 286 283 279 275 271 269 269 265 262 262 262 259 257 254 250 247 248 251 255 259 261 260 259 259
0 358 357 357 357 356 354 351 348 342 337 333 330 325 320 313 305 296 290 287 284 280 275 270 267 265 263 259 257 257 256 254 249 246 245 246 250 254 258 262 261 258 257
2 0 0 2 1 359 358 356 352 348 345 339 335 330 327 320 312 302 292 287 283 280 274 270 263 261 258 254 251 251 251 252 246 243 240 242 248 253 260 262 262 258 256
3 5 5 5 3 6 4 360 357 353 351 348 342 339 336 328 319 303 293 289 282 279 271 266 261 254 254 250 249 245 245 246 241 240 235 238 246 252 259 263 263 258 257
7 8 10 12 12 13 11 7 3 360 357 355 350 345 343 342 335 317 305 294 279 275 260 260 252 251 249 246 245 241 240 240 238 236 233 237 245 253 259 262 264 260 258
12 13 17 18 18 18 15 11 7 3 358 352 345 339 344 11 358 306 288 251 253 244 244 240 242 243 242 240 241 239 239 239 239 231 232 237 245 252 258 262 265 261 256
19 20 23 24 26 28 22 16 13 11 10 9 13 30 73 103 178 221 217 208 214 219 235 235 234 234 231 231 234 236 231 229 224 225 233 240 246 252 257 261 263 261 257
30 29 31 33 35 31 25 19 18 22 23 32 47 85 122 181 194 201 182 183 196 208 224 231 222 219 218 218 218 214 221 216 216 226 233 239 247 253 254 262 264 259 257